www.pogodaiklimat.ru

Погода и климат >> Архив погоды >> Россия >> Якутия >> Белая Гора


ПОГОДА в Белой Горе

  • Прогноз погоды в Белой Горе
  • Монитор погоды в Белой Горе
  • Климат города

АРХИВ ПОГОДЫ в Белой Горе

Время (UTC), дата Ветер
(напр.,м/с)
 
Видим.   Явления Облачность Т
(С)
Тd
(С)
f
(%)
Тe
(С)
Тes
(С)
Комфортность P
(гПа)
Po
(гПа)
Тmin
(С)
Tmax
(С)
R
(мм)
S
(см)
06 17.03 З 1 50 км ясно -9.0 -16.4 55 -11 -10 1018.7 1013.3
21 19.03 ЮЗ 5 50 км ясно -17.0 -21.6 67 -26 -26 1019.5 1013.9 -17.1 102
00 20.03 ЮЗ 4 50 км 4/0
[Ac trans]
-12.6 -19.7 55 -20 -19 1018.8 1013.3
03 20.03 ЮЗ 5 50 км ясно -8.0 -17.1 48 -15 -14 1017.2 1011.8
06 20.03 З 4 50 км 8/0
[Ac trans]
-6.5 -14.8 52 -13 -12 1017.2 1011.8
09 20.03 ЮЗ 3 н/о н/о -7.4 -13.3 63 -13 -13 1017.5 1012.1 -6.7
12 20.03 З 4 н/о н/о -6.7 -12.1 65 -13 -13 1017.3 1011.9
15 20.03 З 4 н/о н/о -6.8 -8.9 85 -13 -13 1017.8 1012.4
18 20.03 З 3 н/о н/о -6.3 -9.0 81 -12 -12 1018.3 1012.9
21 20.03 З 5 50 км 10/10 600 м
[Sc]
-5.4 -8.4 79 -13 -13 1019.0 1013.7 -7.4 102
00 21.03 З 4 10 км слабый снег 10/9 600 м
[Sc As op]
-5.0 -7.9 80 -11 -11 1019.4 1014.1
03 21.03 З 5 50 км {снег} 10/9 1000 м
[Sc As op]
-3.6 -7.7 73 -10 -10 1019.7 1014.4
06 21.03 СЗ 4 50 км 10/10 1000 м
[Sc]
-3.2 -7.9 70 -9 -9 1019.7 1014.4
09 21.03 З 2 н/о н/о -5.5 -7.9 83 -10 -10 1020.1 1014.8 -3.0
12 21.03 З 3 н/о н/о -6.7 -10.0 77 -12 -12 1020.1 1014.7
15 21.03 З 3 н/о н/о -8.8 -10.7 86 -15 -15 1020.3 1014.8
18 21.03 З 2 н/о н/о -10.6 -12.5 86 -15 -15 1020.3 1014.8
21 21.03 З 1 50 км ясно -15.4 -17.1 87 -18 -18 1020.3 1014.7 -15.5 102
00 22.03 ЮЗ 3 50 км ясно -10.2 -15.1 67 -16 -14 1020.2 1014.7
03 22.03 З 3 50 км ясно -4.8 -12.6 54 -10 -7 1019.4 1014.1
06 22.03 ЮЗ 3 50 км ясно -3.9 -13.3 48 -9 -8 1018.8 1013.5
09 22.03 З 2 <100 м 3/0
[As op]
-8.3 -14.3 62 -13 -13 1019.6 1014.2 -3.8
12 22.03 З 2 4000 м 3/0
[Ac trans]
-10.4 -15.1 68 -15 -15 1019.9 1014.4
15 22.03 З 2 4000 м 3/0
[Ac trans]
-10.4 -15.1 68 -15 -15 1019.9 1014.4
18 22.03 З 3 н/о н/о -12.4 -13.3 93 -18 -18 1022.7 1017.1
21 22.03 З 2 500 м туман н/о -14.0 -15.3 90 -19 -19 1024.2 1018.6 -14.1 102
00 23.03 З 2 50 км {туман} 8/0
[Ac As]
-10.4 -11.8 89 -15 -14 1024.9 1019.4
03 23.03 З 3 50 км 3/0
[Ac As]
-5.6 -9.9 72 -11 -9 1024.6 1019.2
06 23.03 З 1 50 км ясно -4.4 -9.6 67 -6 -5 1023.9 1018.5
09 23.03 ЮЗ 4 н/о н/о -8.1 -10.9 80 -15 -15 1023.4 1018.0 -4.5
12 23.03 ЮЗ 4 н/о н/о -10.6 -11.8 91 -18 -18 1022.5 1017.0
15 23.03 З 3 н/о н/о -13.2 -13.9 94 -19 -19 1021.3 1015.8
18 23.03 СЗ 2 н/о н/о -14.4 -15.5 91 -19 -19 1019.9 1014.3
21 23.03 ЮЗ 4 50 км ясно -12.2 -14.2 85 -19 -19 1018.9 1013.4 -15.3 102
00 24.03 СЗ 2 50 км ясно -8.5 -11.3 80 -13 -10 1017.7 1012.3

 

Местоположение метеостанции Белая Гора (Якутия, Россия): широта 68.55 долгота 146.20 высота над уровнем моря 41 м.

В архиве по умолчанию представлена погода в Белой Горе за последнюю неделю. Архивные данные за месяц целиком и за предыдущие месяцы, начиная с января 2011 года, Вы можете получить, выбрав интересующий диапазон дат из раскрывающегося списка и нажав кнопку "Ввод!".

Внимание! Время в таблицах - всемирное. Для получения местного времени необходимо прибавить поправку, которая в Белой Горе равна 11 ч.

Смотрите также архив погоды в соседних городах и на ближайших метеорологических станциях:

Погода в Чокурдахе (Якутия, Россия) (238 км)
Погода в Усть-Моме (Якутия, Россия) (266 км)
Погода в Депутатском (Якутия, Россия) (272 км)
Погода в Среднеколымске (Якутия, Россия) (335 км)
Погода в Андрюшкино (Якутия, Россия) (340 км)
Погода в Зырянке (Якутия, Россия) (373 км)
Погода в Усть-Куйге (Якутия, Россия) (447 км)
Погода в Усть-Чарках (Якутия, Россия) (449 км)
Погода в Юбилейной (Якутия, Россия) (458 км)
Погода в Усть-Нере (Якутия, Россия) (468 км)

Пояснения к столбцам:

Ветер - указаны скорость ветра в м/с - средняя за 10 мин, порывы в срок и между сроками (в фигурных скобках) и направление, откуда дует ветер: С - северный, СВ - северо-восточный, В - восточный, ЮВ - юго-восточный, Ю - южный, ЮЗ - юго-западный, З - западный, СЗ - северо-западный.
Видимость - горизонтальная дальность видимости в метрах или километрах. При видимости от 1 до 10 км при отсутствии осадков обычно наблюдается дымка, при ухудшении видимости до 1 км и менее - туман. В сухую погоду видимость может ухудшаться дымом, пылью или мглою.
Явления - указаны атмосферные явления, наблюдавшиеся в срок или в последний час перед сроком; фигурными скобками обозначены явления, наблюдавшиеся между сроками (за 1-3 часа до срока); квадратными скобками обозначены град или гололедные отложения с указанием их диаметра в мм.
Облачность - указаны через наклонную черту общая и нижняя облачность в баллах и высота нижней границы облаков в метрах; квадратными скобками обозначены формы облаков: Ci - перистые, Cs - перисто-слоистые, Cc - перисто-кучевые, Ac - высококучевые, As - высокослоистые, Sc - слоисто-кучевые, Ns - слоисто-дождевые, Cu - кучевые, Cb - кучево-дождевые. Подробнее классификацию облаков см. в Атласе облаков (PDF).
T - Температура воздуха - температура, измеренная на высоте 2 м над землей.
Td - Температура точки росы - температура, при понижении до которой содержащийся в воздухе водяной пар достигнет насыщения.
f - Относительная влажность воздуха - влажноcть воздуха, измеренная на высоте 2 м над землей.
Te - Эффективная температура - температура, которую ощущает одетый по сезону человек в тени. Характеристика душности погоды. При расчете учитывается влияние влажности воздуха и скорости ветра на теплоощущения человека.
Tes - Эффективная температура на солнце - температура, которую ощущает человек, с поправкой на солнечный нагрев. Характеристика знойности погоды. Зависит от высоты солнца над горизонтом, облачности и скорости ветра. Ночью, в пасмурную погоду, а также при ветре 12 м/с и более поправка равна нулю.
P - Атмосферное давление - приведенное к уровню моря атмосферное давление.
Po - Атмосферное давление - измеренное на уровне метеостанции атмосферное давление.
Tmin - Минимальная температура - минимум температуры воздуха на высоте 2 м над землей.
Tmax - Максимальная температура - максимум температуры воздуха на высоте 2 м над землей.
R - Количество осадков - Количество выпавших осадков, мм. При наведении курсора мыши на число - период времени, за который выпало указанное количество осадков.
S - Снежный покров - Высота снежного покрова, см. При наведении курсора мыши на число - состояние снежного покрова и степень покрытия местности в баллах.